Location: Dehesa de la Cepeda
(40.6574°N, 4.3013°W)
Time: 20:35:30
(UTC+00:00)

Vanguard 3 - Pass Details

Date: 06 August 2021
Orbit: 510 x 3260 km, 33.3° (Epoch: 22 September)

Event Time Altitude Azimuth Distance (km) Brightness Sun altitude
Rises 20:33:46 0° 274° (W) 5,956 12.7 -12.0°
Reaches altitude 10° 20:37:17 10° 271° (W) 5,241 12.2 -12.6°
Maximum altitude 20:53:40 59° 198° (SSW) 3,524 10.2 -15.1°
Enters shadow 21:08:36 21° 130° (SE) 5,236 10.6 -17.3°
